Naples, Italy

6:11 PM CEST on August 20, 2017 (GMT +0200)
Capodichino Mil

Weather History for LIRN - March, 2013

Change the Weather History Date:

Saturday, March 9, 2013

  Actual Average Record
Temperature  
Mean Temperature 58 °F -  
Max Temperature 62 °F 61 °F 68 °F (2002)
Min Temperature 53 °F 44 °F 28 °F (2005)
Degree Days  
Heating Degree Days 8    
Growing Degree Days 8 (Base 50)    
Moisture  
Dew Point 52 °F    
Average Humidity 79    
Maximum Humidity 94    
Minimum Humidity 63    
Precipitation  
Precipitation 0.00 in 0.11 in - ()
Sea Level Pressure  
Sea Level Pressure 29.76 in    
Wind  
Wind Speed 6 mph ()    
Max Wind Speed 13 mph    
Max Gust Speed 23 mph    
Visibility 5.6 miles    
Events      
Averages and records for this station are not official NWS values.
T = Trace of Precipitation, MM = Missing Value Source: Averaged Metar Reports

Daily Weather History Graph

Daily Weather History Graph

Search for Another Location

Airport or City:

Trip Planner

Search our weather history database for the weather conditions in past years. The results will help you decide how hot, cold, wet, or windy it might be!

Date:

Astronomy

Mar. 09, 2013 Rise Set
Actual Time 6:24 AM CET 6:02 PM CET
Civil Twilight 5:56 AM CET 6:30 PM CET
Nautical Twilight 5:25 AM CET 7:02 PM CET
Astronomical Twilight 4:53 AM CET 7:34 PM CET
Moon 4:38 AM CET (3/9) 3:45 PM CET (3/9)
Length of Visible Light 12h 33m
Length of Day
11h 38m
Waning Crescent, 7% of the Moon is Illuminated
Mar 9
Waning Crescent
Mar 11
New
Mar 19
First Quarter
Mar 27
Full
Apr 3
Last Quarter

Hourly Weather History & Observations

Time (CET) Temp. Dew Point Humidity Pressure Visibility Wind Dir Wind Speed Gust Speed Precip Events Conditions
12:20 AM 55.4 °F 51.8 °F 88% 29.74 in 5.0 mi West 4.6 mph - N/A   Scattered Clouds
12:50 AM 55.4 °F 51.8 °F 88% 29.74 in 5.0 mi NW 5.8 mph - N/A   Scattered Clouds
1:20 AM 53.6 °F 50.0 °F 88% 29.74 in 5.0 mi West 4.6 mph - N/A   Scattered Clouds
2:20 AM 53.6 °F 50.0 °F 88% 29.74 in 5.0 mi South 2.3 mph - N/A   Scattered Clouds
2:50 AM 55.4 °F 50.0 °F 82% 29.74 in 5.0 mi SSW 4.6 mph - N/A   Scattered Clouds
3:20 AM 55.4 °F 50.0 °F 82% 29.74 in 5.0 mi SW 5.8 mph - N/A   Scattered Clouds
3:50 AM 55.4 °F 50.0 °F 82% 29.74 in 5.0 mi SSW 8.1 mph - N/A   Scattered Clouds
4:20 AM 55.4 °F 50.0 °F 82% 29.74 in 5.0 mi SW 8.1 mph - N/A   Scattered Clouds
4:50 AM 55.4 °F 50.0 °F 82% 29.74 in 5.0 mi SSW 4.6 mph - N/A   Scattered Clouds
5:20 AM 57.2 °F 50.0 °F 77% 29.74 in 5.0 mi SW 5.8 mph - N/A   Scattered Clouds
5:50 AM 55.4 °F 50.0 °F 82% 29.74 in 6.2 mi SSW 5.8 mph - N/A   Scattered Clouds
6:20 AM 55.4 °F 50.0 °F 82% 29.74 in 6.2 mi SSW 4.6 mph - N/A   Mostly Cloudy
6:50 AM 57.2 °F 50.0 °F 77% 29.74 in 6.2 mi SW 6.9 mph - N/A   Mostly Cloudy
7:20 AM 57.2 °F 50.0 °F 77% 29.77 in 6.2 mi SW 5.8 mph - N/A   Mostly Cloudy
7:50 AM 57.2 °F 50.0 °F 77% 29.77 in 6.2 mi West 8.1 mph - N/A   Scattered Clouds
8:20 AM 59.0 °F 51.8 °F 77% 29.77 in 6.2 mi SW 3.5 mph - N/A   Partly Cloudy
8:50 AM 57.2 °F 51.8 °F 82% 29.77 in 6.2 mi South 3.5 mph - N/A   Scattered Clouds
9:20 AM 59.0 °F 51.8 °F 77% 29.80 in 6.2 mi South 8.1 mph - N/A   Mostly Cloudy
9:50 AM 59.0 °F 53.6 °F 82% 29.80 in 6.2 mi South 10.4 mph - N/A   Mostly Cloudy
10:20 AM 60.8 °F 51.8 °F 72% 29.80 in 6.2 mi South 9.2 mph - N/A   Mostly Cloudy
10:50 AM 60.8 °F 53.6 °F 77% 29.80 in 6.2 mi SSW 10.4 mph - N/A   Mostly Cloudy
11:20 AM 60.8 °F 51.8 °F 72% 29.83 in 6.2 mi South 10.4 mph - N/A   Mostly Cloudy
11:50 AM 60.8 °F 50.0 °F 68% 29.80 in 6.2 mi SSW 10.4 mph - N/A   Scattered Clouds
12:20 PM 60.8 °F 50.0 °F 68% 29.80 in 6.2 mi South 10.4 mph - N/A   Mostly Cloudy
12:50 PM 62.6 °F 50.0 °F 63% 29.80 in 6.2 mi SSW 9.2 mph - N/A   Scattered Clouds
1:20 PM 62.6 °F 53.6 °F 72% 29.80 in 6.2 mi South 10.4 mph - N/A   Scattered Clouds
1:50 PM 62.6 °F 53.6 °F 72% 29.80 in 6.2 mi South 8.1 mph - N/A   Scattered Clouds
2:20 PM 60.8 °F 53.6 °F 77% 29.77 in 6.2 mi South 8.1 mph - N/A   Partly Cloudy
2:50 PM 60.8 °F 53.6 °F 77% 29.77 in 6.2 mi SSW 8.1 mph - N/A   Partly Cloudy
3:20 PM 62.6 °F 51.8 °F 68% 29.77 in 6.2 mi SSW 9.2 mph - N/A   Partly Cloudy
3:50 PM 60.8 °F 53.6 °F 77% 29.77 in 6.2 mi South 10.4 mph - N/A   Partly Cloudy
4:20 PM 60.8 °F 53.6 °F 77% 29.74 in 6.2 mi South 8.1 mph - N/A   Partly Cloudy
4:50 PM 59.0 °F 51.8 °F 77% 29.74 in 6.2 mi SSW 8.1 mph - N/A   Scattered Clouds
5:20 PM 59.0 °F 50.0 °F 72% 29.74 in 6.2 mi SSW 6.9 mph - N/A   Mostly Cloudy
5:50 PM 59.0 °F 51.8 °F 77% 29.74 in 6.2 mi SSW 6.9 mph - N/A   Mostly Cloudy
6:20 PM 59.0 °F 50.0 °F 72% 29.74 in 6.2 mi SSW 5.8 mph - N/A   Mostly Cloudy
6:50 PM 59.0 °F 50.0 °F 72% 29.74 in 6.2 mi SSW 9.2 mph - N/A   Mostly Cloudy
7:20 PM 59.0 °F 51.8 °F 77% 29.74 in 5.0 mi South 11.5 mph 23.0 mph N/A   Mostly Cloudy
7:50 PM 57.2 °F 51.8 °F 82% 29.74 in 5.0 mi South 11.5 mph - N/A   Mostly Cloudy
8:20 PM 57.2 °F 53.6 °F 88% 29.74 in 5.0 mi South 9.2 mph - N/A   Mostly Cloudy
8:50 PM 59.0 °F 53.6 °F 82% 29.74 in 5.0 mi South 10.4 mph 21.9 mph N/A   Mostly Cloudy
9:20 PM 59.0 °F 53.6 °F 82% 29.74 in 5.0 mi South 10.4 mph - N/A   Mostly Cloudy
9:50 PM 59.0 °F 53.6 °F 82% 29.74 in 3.7 mi South 9.2 mph - N/A   Mostly Cloudy
10:20 PM 59.0 °F 55.4 °F 88% 29.74 in 3.7 mi South 8.1 mph - N/A   Mostly Cloudy
11:20 PM 57.2 °F 55.4 °F 94% 29.71 in 4.3 mi SSW 11.5 mph - N/A   Mostly Cloudy
11:50 PM 57.2 °F 55.4 °F 94% 29.71 in 4.3 mi SSW 12.7 mph - N/A   Mostly Cloudy